TimePDT,TemperatureF,Dew PointF,Humidity,Sea Level PressureIn,VisibilityMPH,Wind Direction,Wind SpeedMPH,Gust SpeedMPH,PrecipitationIn,Events,Conditions,WindDirDegrees,DateUTC
12:53 AM,53.1,46.9,80,29.94,10.0,SSE,5.8,-,0.00,,Overcast,160,2013-05-18 07:53:00
1:53 AM,53.1,46.9,80,29.94,10.0,SSE,8.1,-,N/A,,Overcast,160,2013-05-18 08:53:00
2:53 AM,51.1,48.9,92,29.96,7.0,South,6.9,-,0.01,Rain,Light Rain,190,2013-05-18 09:53:00
3:53 AM,51.1,48.9,92,29.96,10.0,Calm,Calm,-,0.01,,Overcast,0,2013-05-18 10:53:00
4:53 AM,51.1,46.9,86,29.97,10.0,SSE,8.1,-,N/A,,Overcast,160,2013-05-18 11:53:00
5:53 AM,50.0,45.0,83,30.00,10.0,South,10.4,-,N/A,,Overcast,170,2013-05-18 12:53:00
6:04 AM,50.0,44.6,82,30.01,10.0,South,10.4,-,0.00,Rain,Light Rain,170,2013-05-18 13:04:00
6:53 AM,48.0,43.0,83,30.02,10.0,South,10.4,-,0.00,,Overcast,180,2013-05-18 13:53:00
7:18 AM,48.2,42.8,82,30.03,10.0,South,10.4,-,N/A,,Overcast,180,2013-05-18 14:18:00
7:42 AM,48.2,42.8,82,30.04,10.0,South,11.5,-,N/A,,Mostly Cloudy,180,2013-05-18 14:42:00
7:53 AM,50.0,43.0,77,30.04,10.0,South,10.4,-,N/A,,Overcast,170,2013-05-18 14:53:00
8:38 AM,50.0,42.8,76,30.04,10.0,SSE,13.8,-,N/A,,Mostly Cloudy,160,2013-05-18 15:38:00
8:53 AM,50.0,43.0,77,30.05,10.0,SSE,12.7,-,N/A,,Mostly Cloudy,150,2013-05-18 15:53:00
9:38 AM,51.8,42.8,71,30.05,10.0,SSE,9.2,-,N/A,,Overcast,150,2013-05-18 16:38:00
9:53 AM,51.1,43.0,74,30.06,10.0,SSE,10.4,-,N/A,,Overcast,160,2013-05-18 16:53:00
10:53 AM,52.0,43.0,71,30.07,10.0,South,9.2,-,N/A,,Overcast,170,2013-05-18 17:53:00
11:12 AM,51.8,42.8,71,30.06,10.0,South,9.2,-,N/A,,Overcast,180,2013-05-18 18:12:00
11:29 AM,53.6,42.8,67,30.07,10.0,South,8.1,-,N/A,,Overcast,170,2013-05-18 18:29:00
12:38 PM,51.8,42.8,71,30.08,10.0,South,12.7,-,N/A,,Overcast,170,2013-05-18 19:38:00
12:53 PM,50.0,45.0,83,30.09,8.0,SSE,10.4,-,0.00,Rain,Light Rain,150,2013-05-18 19:53:00
1:53 PM,50.0,46.0,86,30.09,10.0,SE,6.9,-,0.02,,Overcast,130,2013-05-18 20:53:00
2:53 PM,55.0,45.0,69,30.08,10.0,Variable,5.8,-,N/A,,Overcast,0,2013-05-18 21:53:00
3:53 PM,57.0,45.0,64,30.07,10.0,SE,8.1,-,N/A,,Overcast,140,2013-05-18 22:53:00
4:53 PM,57.9,44.1,60,30.07,10.0,South,4.6,-,N/A,,Overcast,180,2013-05-18 23:53:00
5:53 PM,57.9,43.0,58,30.08,10.0,SSE,3.5,-,N/A,,Overcast,160,2013-05-19 00:53:00
6:53 PM,57.0,44.1,62,30.09,10.0,SE,4.6,-,N/A,,Overcast,140,2013-05-19 01:53:00
7:53 PM,55.9,45.0,67,30.09,10.0,ESE,4.6,-,N/A,,Overcast,110,2013-05-19 02:53:00
8:53 PM,54.0,45.0,72,30.11,10.0,ESE,3.5,-,N/A,,Overcast,120,2013-05-19 03:53:00
9:53 PM,53.1,44.1,71,30.12,10.0,SE,3.5,-,N/A,,Overcast,140,2013-05-19 04:53:00
10:53 PM,52.0,45.0,77,30.12,10.0,Calm,Calm,-,N/A,,Overcast,0,2013-05-19 05:53:00
11:53 PM,48.9,42.1,77,30.14,10.0,South,5.8,-,N/A,,Scattered Clouds,180,2013-05-19 06:53:00